Detroit Lakes, MN

3:57 PM CDT on August 30, 2016 (GMT -0500)
Detroit Lakes

Weather History for KDTL - September, 2013

Change the Weather History Date:

Saturday, September 28, 2013

  Actual Average Record
Temperature  
Mean Temperature 52 °F -  
Max Temperature 53 °F 63 °F 83 °F (1952)
Min Temperature 50 °F 37 °F 19 °F (1961)
Degree Days  
Heating Degree Days 14    
Growing Degree Days 2 (Base 50)    
Moisture  
Dew Point 48 °F    
Average Humidity 89    
Maximum Humidity 100    
Minimum Humidity 67    
Precipitation  
Precipitation 0.00 in - - ()
Sea Level Pressure  
Sea Level Pressure 29.73 in    
Wind  
Wind Speed 9 mph (WNW)    
Max Wind Speed 21 mph    
Max Gust Speed 28 mph    
Visibility 9 miles    
Events Rain    
Averages and records for this station are not official NWS values.
T = Trace of Precipitation, MM = Missing Value Source: NWS Daily Summary

Daily Weather History Graph

Daily Weather History Graph

Search for Another Location

Airport or City:

Trip Planner

Search our weather history database for the weather conditions in past years. The results will help you decide how hot, cold, wet, or windy it might be!

Date:

Astronomy

Sep. 28, 2013 Rise Set
Actual Time 7:18 AM CDT 7:08 PM CDT
Civil Twilight 6:48 AM CDT 7:38 PM CDT
Nautical Twilight 6:13 AM CDT 8:14 PM CDT
Astronomical Twilight 5:36 AM CDT 8:50 PM CDT
Moon 12:47 AM CDT (9/28) 3:45 PM CDT (9/28)
Length of Visible Light 12h 50m
Length of Day
11h 50m
Waning Crescent, 36% of the Moon is Illuminated
Sep 28
Waning Crescent
Oct 4
New
Oct 11
First Quarter
Oct 18
Full
Oct 26
Last Quarter

Hourly Weather History & Observations

Time (CDT) Temp. Dew Point Humidity Pressure Visibility Wind Dir Wind Speed Gust Speed Precip Events Conditions
12:15 AM 51.8 °F 50.0 °F 94% 29.76 in 5.0 mi NNW 5.8 mph - N/A Rain Rain
12:35 AM 51.8 °F 50.0 °F 94% 29.79 in 10.0 mi NW 6.9 mph - N/A Rain Light Rain
12:55 AM 51.8 °F 50.0 °F 94% 29.75 in 7.0 mi North 6.9 mph - N/A Rain Light Rain
1:15 AM 51.8 °F 50.0 °F 94% 29.77 in 10.0 mi NW 3.5 mph - N/A Rain Rain
1:35 AM 51.8 °F 50.0 °F 94% 29.73 in 10.0 mi North 8.1 mph - N/A Rain Rain
1:55 AM 51.8 °F 50.0 °F 94% 29.71 in 10.0 mi NNE 5.8 mph - N/A   Overcast
2:15 AM 51.8 °F 50.0 °F 94% 29.70 in 10.0 mi NE 6.9 mph - N/A   Light Drizzle
2:35 AM 51.8 °F 50.0 °F 94% 29.68 in 10.0 mi NNE 5.8 mph - N/A   Overcast
2:55 AM 51.8 °F 51.8 °F 100% 29.69 in 10.0 mi Calm Calm - N/A   Overcast
3:15 AM 51.8 °F 51.8 °F 100% 29.67 in 10.0 mi Calm Calm - N/A   Overcast
3:35 AM 51.8 °F 51.8 °F 100% 29.67 in 10.0 mi WNW 6.9 mph - N/A   Overcast
3:55 AM 51.8 °F 50.0 °F 94% 29.69 in 10.0 mi WNW 12.7 mph - N/A   Overcast
4:15 AM 51.8 °F 50.0 °F 94% 29.70 in 10.0 mi NW 16.1 mph 20.7 mph N/A Rain Light Rain
4:35 AM 50.0 °F 50.0 °F 100% 29.69 in 5.0 mi NW 11.5 mph 20.7 mph N/A Rain Light Rain
4:55 AM 50.0 °F 50.0 °F 100% 29.67 in 10.0 mi NNW 10.4 mph 16.1 mph N/A   Light Drizzle
5:15 AM 50.0 °F 50.0 °F 100% 29.63 in 7.0 mi North 11.5 mph 20.7 mph N/A Rain Light Rain
5:35 AM 50.0 °F 50.0 °F 100% 29.64 in 5.0 mi North 4.6 mph - N/A   Light Drizzle
5:55 AM 50.0 °F 50.0 °F 100% 29.57 in 7.0 mi North 8.1 mph - N/A Rain Light Rain
6:15 AM 50.0 °F 50.0 °F 100% 29.58 in 10.0 mi NE 10.4 mph - N/A Rain Light Rain
6:35 AM 50.0 °F 50.0 °F 100% 29.57 in 5.0 mi ENE 3.5 mph - N/A Rain Rain
6:55 AM 51.8 °F 50.0 °F 94% 29.60 in 7.0 mi West 8.1 mph - N/A Rain Rain
7:15 AM 50.0 °F 50.0 °F 100% 29.61 in 10.0 mi WNW 11.5 mph - N/A Rain Rain
7:35 AM 50.0 °F 50.0 °F 100% 29.62 in 7.0 mi WNW 10.4 mph - N/A Rain Rain
7:55 AM 50.0 °F 50.0 °F 100% 29.62 in 7.0 mi WNW 10.4 mph - N/A Rain Light Rain
8:15 AM 50.0 °F 50.0 °F 100% 29.63 in 7.0 mi WNW 19.6 mph 26.5 mph N/A Rain Light Rain
8:35 AM 50.0 °F 48.2 °F 94% 29.63 in 4.0 mi WNW 15.0 mph 20.7 mph N/A Rain Light Rain
8:55 AM 50.0 °F 48.2 °F 94% 29.63 in 3.0 mi NW 16.1 mph 21.9 mph N/A Rain Light Rain
9:15 AM 50.0 °F 48.2 °F 94% 29.65 in 4.0 mi WNW 17.3 mph 20.7 mph N/A Rain Rain
9:35 AM 50.0 °F 48.2 °F 94% 29.64 in 5.0 mi NW 13.8 mph 21.9 mph N/A Rain Rain
9:55 AM 50.0 °F 48.2 °F 94% 29.64 in 7.0 mi NW 16.1 mph - N/A Rain Light Rain
10:15 AM 50.0 °F 48.2 °F 94% 29.65 in 4.0 mi WNW 13.8 mph 21.9 mph N/A Rain Light Rain
10:35 AM 50.0 °F 50.0 °F 100% 29.65 in 4.0 mi WNW 16.1 mph 20.7 mph N/A Rain Light Rain
10:55 AM 50.0 °F 48.2 °F 94% 29.66 in 7.0 mi WNW 13.8 mph 19.6 mph N/A Rain Light Rain
11:15 AM 50.0 °F 50.0 °F 100% 29.68 in 10.0 mi West 12.7 mph 18.4 mph N/A Rain Light Rain
11:35 AM 50.0 °F 50.0 °F 100% 29.69 in 7.0 mi WNW 16.1 mph 21.9 mph N/A Rain Light Rain
11:55 AM 50.0 °F 48.2 °F 94% 29.70 in 7.0 mi WNW 13.8 mph 20.7 mph N/A Rain Light Rain
12:15 PM 50.0 °F 50.0 °F 100% 29.70 in 10.0 mi WNW 13.8 mph 18.4 mph N/A Rain Light Rain
12:35 PM 51.8 °F 50.0 °F 94% 29.70 in 10.0 mi West 13.8 mph 21.9 mph N/A Rain Light Rain
12:55 PM 51.8 °F 48.2 °F 88% 29.70 in 10.0 mi WNW 15.0 mph 23.0 mph N/A   Mostly Cloudy
1:15 PM 51.8 °F 50.0 °F 94% 29.71 in 10.0 mi WNW 15.0 mph 21.9 mph N/A Rain Light Rain
1:34 PM 51.8 °F 50.0 °F 94% 29.71 in 10.0 mi WNW 15.0 mph 21.9 mph N/A Rain Light Rain
1:55 PM 51.8 °F 48.2 °F 88% 29.72 in 10.0 mi WNW 12.7 mph 20.7 mph N/A   Mostly Cloudy
2:15 PM 50.0 °F 46.4 °F 87% 29.73 in 10.0 mi WNW 15.0 mph 18.4 mph N/A Rain Light Rain
2:35 PM 50.0 °F 48.2 °F 94% 29.74 in 4.0 mi West 15.0 mph 19.6 mph N/A Rain Light Rain
2:55 PM 51.8 °F 48.2 °F 88% 29.74 in 10.0 mi West 20.7 mph 25.3 mph N/A Rain Light Rain
3:15 PM 51.8 °F 46.4 °F 82% 29.76 in 7.0 mi WNW 18.4 mph 27.6 mph N/A Rain Light Rain
3:35 PM 50.0 °F 46.4 °F 87% 29.76 in 10.0 mi WNW 13.8 mph 18.4 mph N/A   Mostly Cloudy
3:55 PM 51.8 °F 46.4 °F 82% 29.77 in 10.0 mi WNW 18.4 mph 24.2 mph N/A   Mostly Cloudy
4:15 PM 53.6 °F 46.4 °F 77% 29.78 in 10.0 mi NW 16.1 mph 21.9 mph N/A   Mostly Cloudy
4:35 PM 53.6 °F 46.4 °F 77% 29.78 in 10.0 mi NW 16.1 mph 23.0 mph N/A   Scattered Clouds
4:55 PM 53.6 °F 44.6 °F 72% 29.79 in 10.0 mi WNW 15.0 mph 23.0 mph N/A   Scattered Clouds
5:15 PM 53.6 °F 44.6 °F 72% 29.79 in 10.0 mi NW 12.7 mph - N/A   Mostly Cloudy
5:35 PM 53.6 °F 42.8 °F 67% 29.81 in 10.0 mi WNW 9.2 mph - N/A   Scattered Clouds
5:55 PM 53.6 °F 44.6 °F 72% 29.82 in 10.0 mi WNW 6.9 mph - N/A   Scattered Clouds
6:15 PM 53.6 °F 44.6 °F 72% 29.82 in 10.0 mi West 5.8 mph - N/A   Clear
6:35 PM 51.8 °F 44.6 °F 76% 29.82 in 10.0 mi Calm Calm - N/A   Clear
6:55 PM 53.6 °F 46.4 °F 77% 29.82 in 10.0 mi Calm Calm - N/A   Scattered Clouds
7:15 PM 51.8 °F 44.6 °F 76% 29.82 in 10.0 mi South 5.8 mph - N/A   Clear
7:35 PM 50.0 °F 44.6 °F 82% 29.83 in 10.0 mi South 5.8 mph - N/A   Clear
7:55 PM 50.0 °F 44.6 °F 82% 29.83 in 10.0 mi South 4.6 mph - N/A   Clear
8:15 PM 50.0 °F 44.6 °F 82% 29.83 in 10.0 mi South 5.8 mph - N/A   Clear
8:35 PM 50.0 °F 46.4 °F 87% 29.83 in 10.0 mi South 5.8 mph - N/A   Clear
8:55 PM 50.0 °F 46.4 °F 87% 29.83 in 10.0 mi South 8.1 mph - N/A   Clear
9:15 PM 50.0 °F 44.6 °F 82% 29.83 in 10.0 mi SSW 8.1 mph - N/A   Clear
9:35 PM 50.0 °F 46.4 °F 87% 29.82 in 10.0 mi South 8.1 mph - N/A   Clear
9:55 PM 50.0 °F 46.4 °F 87% 29.83 in 10.0 mi SSW 6.9 mph - N/A   Clear
10:15 PM 51.8 °F 46.4 °F 82% 29.83 in 10.0 mi SSW 6.9 mph - N/A   Clear
10:35 PM 50.0 °F 44.6 °F 82% 29.83 in 10.0 mi SSW 8.1 mph - N/A   Clear
10:55 PM 51.8 °F 44.6 °F 76% 29.83 in 10.0 mi SW 10.4 mph - N/A   Clear
11:15 PM 51.8 °F 44.6 °F 76% 29.83 in 10.0 mi SW 9.2 mph - N/A   Clear
11:35 PM 51.8 °F 44.6 °F 76% 29.84 in 10.0 mi SW 9.2 mph - N/A   Clear
11:55 PM 51.8 °F 42.8 °F 71% 29.84 in 10.0 mi SW 8.1 mph - N/A   Clear